Find Ekran

NORAD ID: 13878 Int'l Des: 1983-016 Owner: MSVYAZ Country: SU operational
HEOCIRCULAR

Live-Position

3D-Globus wird geladen...

Über Ekran

Beschreibung wird geladen...

Nächste Überflüge

Passes for default location (London). Set your location on the main map for personalized predictions.

Höhenverlauf

Loading altitude history...

Zweizeiliger Elementsatz

1 13878U 83016A 26120.34200964 -.00000151 00000-0 00000+0 0 9991
2 13878 10.5057 310.7753 0032733 25.7048 354.1437 0.95031429118726
Epoch: 30. Apr. 2026 • Age: 17 hours

Aktueller Status

Höhe 37401.7 km
Geschwindigkeit 3.01 km/s
Subsatellitenpunkt -10.44°S, 24.64°W
Startdatum 12. März 1983
Alter 43.1 years
Typ other

Technische Details

Klassifizierung Payload
Masse 2000.00 kg
Trockenmasse 1850.00 kg
Gesamtmasse 2000.00 kg
Länge 5.50 m
Durchmesser 2.50 m
Spannweite 9.00 m
Form Cyl + 2 Pan + Plate
Hersteller NPOPM
Bus-Typ Ekran
Phasenstatus In Orbit
Besitzer/Staat MSVYAZ/SU

Most Searched